Regional Weather Roundup
Issued by NWS

Home | Current Version | Previous Version | Graphics & Text | Print | Product List | Glossary On
Versions: 1 2 3 4 5 6 7 8 9 10 11 12 13 14 15 16 17 18 19 20 21 22 23 24 25 26 27 28 29 30 31 32 33 34 35 36 37 38 39 40 41 42 43 44 45 46 47 48 49 50
000
ASUS43 KMPX 250801
RWRMN
WEATHER ROUNDUP FOR MINNESOTA
NATIONAL WEATHER SERVICE TWIN CITIES/CHANHASSEN MN
200 AM CST SUN JAN 25 2015


NOTE: "FAIR" INDICATES FEW OR NO CLOUDS BELOW 12,000 FEET WITH NO
SIGNIFICANT WEATHER AND/OR OBSTRUCTIONS TO VISIBILITY. N/A MEANS
CURRENT SKY AND/OR WEATHER CONDITIONS ARE NOT AVAILABLE.

MNZ060>063-068>070-250900-
   Twin Cities Metro

CITY           SKY/WX    TMP DP  RH WIND       PRES   REMARKS
TWIN CITIES    LGT SNOW  32  28  85 NE14      29.73R FOG     WCI  22
ST PAUL        LGT SNOW  32  29  88 NE12G21   29.76R FOG     WCI  23
CRYSTAL        LGT SNOW  31  26  82 NE13G22   29.74R WCI  21
BLAINE         CLOUDY    30  27  86 NE15      29.75R WCI  19
LAKEVILLE      LGT SNOW  30  30 100 NE12G17   29.71R WCI  21
EDEN PRAIRIE   LGT SNOW  32  29  88 NE16      29.71R FOG     WCI  21
SOUTH ST PAUL  CLOUDY    33  31  93 NE10      29.73R FOG     WCI  25
LAKE ELMO      MIX PCPN  32  28  86 NE12G22   29.75R WCI  23
$$
MNZ001>005-007-008-013>017-022>024-027-028-250900-
   Northwest Minnesota

CITY           SKY/WX    TMP DP  RH WIND       PRES   REMARKS
BEMIDJI        CLOUDY    17  10  76 N5        29.85R WCI   9
HALLOCK        CLOUDY    18  10  73 E6        29.95R WCI   9
ROSEAU         PTCLDY    12   5  73 E12       29.95R WCI  -2
WARROAD        PTCLDY    10   3  72 NE12      29.95R WCI  -4
THIEF RVR FALL CLOUDY    18  10  73 NE9       29.91R WCI   6
CROOKSTON      CLOUDY    19  12  73 NE9       29.92R WCI   9
FOSSTON        CLOUDY    16  10  79 NE8       29.88R WCI   5
DETROIT LAKES  CLOUDY    30  27  86 NE3       29.82R
MOORHEAD       FAIR      25  25 100 N13       29.87R WCI  13
PARK RAPIDS    CLOUDY    25  16  68 NE6       29.81R WCI  18
MAHNOMEN       PTSUNNY   20  15  79 NE9       29.83R WCI  10
$$
MNZ006-009>011-018-025>026-250900-
   North Central Minnesota

CITY           SKY/WX    TMP DP  RH WIND       PRES   REMARKS
BAUDETTE       CLOUDY    10   0  63 E10       29.92R WCI  -4
FLAG ISLAND    PTCLDY     9   0  66 E5        29.97R WCI   0
INTL FALLS     CLOUDY     5  -3  69 E9        29.94R WCI  -9
WASKISH        CLOUDY    12   7  79 NE7       29.90R WCI   2
BIG FORK       CLOUDY    12   7  79 NE5       29.88R WCI   4
LONGVILLE      CLOUDY    23  16  74 N5        29.83R WCI  17
GRAND RAPIDS   CLOUDY    21  16  79 E6        29.83R WCI  14
CRANE LAKE     PTCLDY     1  -4  78 CALM      29.97R
ORR            CLOUDY     9   0  66 CALM      29.88R
COOK           CLOUDY    10   1  67 NE8       29.89S WCI  -1
WALKER         CLOUDY    20  12  72 NE5       29.83R WCI  13
$$
MNZ012-019>021-037-250900-
   Northeast Minnesota

CITY           SKY/WX    TMP DP  RH WIND       PRES   REMARKS
DULUTH         FLURRIES  19  11  70 E15G24    29.84R WCI   5
ELY            CLEAR      1  -2  85 NE3       29.91R
HIBBING        CLOUDY    20  11  68 NE6       29.86R WCI  12
EVELETH        CLOUDY    19  12  73 E7        29.88R WCI  10
DULUTH HARBOR  CLOUDY    23  18  80 E21G29    29.91R WCI   8
TWO HARBORS    FLURRIES  21  14  73 NE10      29.87R WCI  10
SILVER BAY     FLURRIES  16  10  79 NE8       29.89R WCI   5
GRAND MARAIS     N/A      8  -2  63 N7        29.98R WCI  -3
G MARAIS ARPRT CLOUDY    -2  -9  71 N10       29.87S WCI -19
$$
MNZ029>031-032-039>041-046>048-054>057-064-250900-
   West Central Minnesota

CITY           SKY/WX    TMP DP  RH WIND       PRES   REMARKS
FERGUS FALLS   CLOUDY    30  28  93 N5        29.84R WCI  25
WHEATON        MIX PCPN  28  28 100 NW12G17   29.84R WCI  18
MORRIS         MIX PCPN N/A N/A N/A N8        29.78R
ALEXANDRIA     CLOUDY    32  29  88 N9        29.78R WCI  24
ELBOW LAKE     MOCLDY    30  29  95 N7        29.80R WCI  23
WADENA         CLOUDY    27  23  86 N7        29.80R WCI  19
GLENWOOD       CLOUDY    32  30  93 N10         N/A  WCI  24
APPLETON       CLOUDY    34  32  93 N9        29.78R WCI  26
BENSON         CLOUDY    34  30  86 NE7       29.77R WCI  28
ORTONVILLE     DRIZZLE   32  30  93 N13       29.79R WCI  22
MADISON        LGT SNOW  36  36 100 N10       29.78R
WILLMAR        MIX PCPN  34  32  93 NE10      29.76R WCI  26
$$
MNZ033>034-036-042>043-049>051-058-059-250900-
   Central Minnesota

CITY           SKY/WX    TMP DP  RH WIND       PRES   REMARKS
ST CLOUD       CLOUDY    30  24  78 NE12G18   29.77R WCI  20
SAUK CENTRE    CLOUDY    31  28  89 NE8       29.78R WCI  23
PAYNESVILLE    CLOUDY    30  29  98 N12G17    29.76R WCI  20
AITKIN         CLOUDY    27  19  74 NE12      29.82R WCI  16
PINE RIVER     CLOUDY    27  19  74 N6        29.85R WCI  20
BRAINERD       CLOUDY    25  20  81 NE10      29.82R WCI  15
STAPLES        CLOUDY    28  25  86 NE6       29.79R WCI  22
LONG PRAIRIE   CLOUDY    30  28  93 NE7       29.78R WCI  23
LITTLE FALLS   CLOUDY    28  23  80 NE8       29.80R WCI  20
LITCHFIELD     CLOUDY    34  34 100 NE9       29.74R WCI  26
BUFFALO        MIX PCPN  29  26  88 NE12      29.76R WCI  20
MAPLE LAKE     CLOUDY    31  29  92 NE12      29.76R WCI  22
$$
MNZ037-044-045-052-053-250900-
   East Central Minnesota

CITY           SKY/WX    TMP DP  RH WIND       PRES   REMARKS
PRINCETON      CLOUDY    28  21  74 NE12G18   29.78R WCI  18
MORA           CLOUDY    27  19  74 NE8       29.81R WCI  18
CAMBRIDGE      CLOUDY    28  18  64 NE14      29.77R WCI  17
RUSH CITY      CLOUDY    25  19  77 NE12G20   29.80R WCI  14
MOOSE LAKE     MOCLDY    23  16  74 NE10G17   29.82R WCI  12
HINCKLEY       CLOUDY    27  19  74 NE10G17   29.81R WCI  17
CLOQUET        CLOUDY    19  12  73 NE14G25   29.84R WCI   6
MCGREGOR       CLOUDY    23  18  80 NE7       29.84R WCI  15
$$
MNZ071>073-080-081-089-090-097-098-250900-
   Southwest Minnesota

CITY           SKY/WX    TMP DP  RH WIND       PRES   REMARKS
MONTEVIDEO     LGT SNOW  32  32 100 NE9       29.77R WCI  24
GRANITE FALLS  LGT RAIN  32  32  99 N10       29.76R WCI  24
CANBY          LGT SNOW  33  32  97 N9        29.78R WCI  25
MARSHALL       CLOUDY    32  28  86 N13       29.74R WCI  22
REDWOOD FALLS  LGT SNOW  34  32  92 NE9G16    29.72R FOG     WCI  27
OLIVIA         LGT RAIN  32  32 100 NE10      29.72R WCI  24
PIPESTONE      LGT SNOW  34  30  86 N15       29.69R WCI  24
WINDOM         LGT SNOW  34  34 100 N14       29.66R WCI  24
WORTHINGTON    CLOUDY    32  30  93 N17       29.67R WCI  21
JACKSON        MIX PCPN  34  32  93 N10       29.65R WCI  26
TRACY          MIX PCPN  33  32  98 N13       29.71R WCI  24
SLAYTON        LGT SNOW  32  32  99 N16G22    29.69R WCI  21
$$
MNZ065>067-074>077-082>085-091>093-250900-
   South Central Minnesota

CITY           SKY/WX    TMP DP  RH WIND       PRES   REMARKS
MANKATO        CLOUDY    34  30  86 NE15      29.68R WCI  24
NEW ULM        LGT SNOW  34  32  93 NE10      29.69R WCI  26
ST JAMES       LGT SNOW  34  34 100 N12       29.68R WCI  25
FAIRMONT       CLOUDY    34  30  86 N13       29.63R WCI  25
GLENCOE        LGT SNOW  34  33  98 NE7       29.71R WCI  27
FARIBAULT      CLOUDY    34  32  93 N13G18    29.68R FOG     WCI  25
OWATONNA       MIX PCPN  34  30  86 NE14      29.66R WCI  24
WASECA         DRIZZLE   34  32  93 NE13G18   29.67R WCI  25
ALBERT LEA     CLOUDY    34  34 100 NE8       29.63R WCI  27
$$
MNZ078>079-086>088-094>096-250900-
   Southeast Minnesota

CITY           SKY/WX    TMP DP  RH WIND       PRES   REMARKS
ROCHESTER      CLOUDY    33  30  88 NE12      29.64R WCI  24
RED WING       MIX PCPN  34  32  93 NE8       29.71R WCI  27
STANTON        LGT RAIN  34  32  92 NE12G20   29.69R WCI  25
DODGE CENTER   CLOUDY    34  32  93 NE10      29.64R WCI  26
WINONA         CLOUDY    34  32  93 NE3       29.69R
AUSTIN         CLOUDY    34  30  86 NE7       29.62R WCI  28
PRESTON        CLOUDY    33  30  90 NE9       29.63R WCI  25
$$
ABBREVIATIONS USED IN REMARKS
   TC - TEMPERATURES IN CELSIUS
  WCI - WIND CHILL INDEX
   HX - HEAT INDEX
  VSB - VISIBILITY
$$



USA.gov is the U.S. government's official web portal to all federal, state and local government web resources and services.